Location: Colle Santa Colomba
(42.0333°N, 12.5667°E)
Time: 03:14:54
(UTC+00:00)

Cosmos 1892 Rocket - Pass Details

Date: 25 October 2021
Orbit: 605 x 634 km, 82.5° (Epoch: 28 November)

Event Time Altitude Azimuth Distance (km) Brightness Sun altitude
Rises 16:37:32 0° 352° (N) 2,924 7.0 -5.3°
Reaches altitude 10° 16:39:47 10° 353° (N) 2,008 6.1 -5.7°
Maximum altitude 16:44:14 84° 80° (E) 630 3.6 -6.5°
Drops below altitude 10° 16:48:37 10° 171° (S) 1,973 6.2 -7.3°
Sets 16:50:49 0° 172° (S) 2,869 7.0 -7.7°
